sat.trackr.live / text

‹ back to catalog

STARLINK-30978

NORAD 58490 · 2023-186T

PAYLOAD ACTIVE UNKNOWN

§ Identity

Operator
Country
US
Launch date
2023-12-03
Launch site
AFETR
Launch vehicle
Mass (kg)
RCS (m²)

Purposes: comms

External: N2YO · Heavens-Above · Gunter

§ Orbital elements

Epoch: 2026-05-24T23:21:13.279104Z

Period
94.27 min
Inclination
43.0057°
Eccentricity
0.0001884
Mean motion
15.27578161 rev/d
Perigee alt
481.8 km
Apogee alt
484.3 km
Semi-major
6,861.2 km
B*
4.1881e-5
RAAN
352.7674°
Arg perigee
279.2841°
Mean anomaly
80.7798°
Rev number
13,755

§ Raw data

STARLINK-309781 58490U 23186T   26144.97307036  .00000890  00000+0  41881-4 0  99902 58490  43.0057 352.7674 0001884 279.2841  80.7798 15.27578161137558

JSON: /api/v1/satellites/58490 · /tle

For live sub-satellite position, see the globe view (requires WebGL).

§ Visibility from observer

Set your observer location to see the next 7 days of passes ≥ 10°. The values pass through the URL so the page stays shareable.

No JS? Fill the form by hand. The geolocation button needs JavaScript.